Weather reports worldwide

Advertisment
Åsele, Sweden (2254): temperature & dewpoint: 14.10.2019 04:00:00 - 20.10.2019 04:00:00 (CEST)Åsele, Sweden (2254): wind speed & gusts: 14.10.2019 04:00:00 - 20.10.2019 04:00:00 (CEST)Åsele, Sweden (2254): wind direction: 14.10.2019 04:00:00 - 20.10.2019 04:00:00 (CEST)Åsele, Sweden (2254): reduced air pressure: 14.10.2019 04:00:00 - 20.10.2019 04:00:00 (CEST)Åsele, Sweden (2254): visibility: 14.10.2019 04:00:00 - 20.10.2019 04:00:00 (CEST)Åsele, Sweden (2254): precipitation: 14.10.2019 04:00:00 - 20.10.2019 04:00:00 (CEST)
Date & Time tt [°C] td [°C] ff [km/h] ff [kn] fx [km/h] fx [kn] dd ppp [hPa] vv [km] rr [mm]
20.10.2019 04:00:00 -5,1 -7,3 5 3 19 10 NNE 1018,7 50 0,0
20.10.2019 03:00:00 -4,3 -6,8 9 5 17 9 N 1018,0 50 0,0
20.10.2019 02:00:00 -4,3 -6,6 5 3 17 9 NNE 1017,7 50 0,0
20.10.2019 01:00:00 -3,2 -5,8 8 4 18 10 N 1016,9 50 0,0
20.10.2019 00:00:00 -3,0 -5,5 2 1 14 8 N 1016,3 50 0,0
19.10.2019 23:00:00 -2,0 -4,8 7 4 23 13 NNE 1015,3 50 0,0
19.10.2019 22:00:00 -1,2 -4,2 9 5 24 13 NNE 1014,4 50 0,0
19.10.2019 21:00:00 -0,1 -3,6 10 6 31 17 NNE 1013,4 50 0,0
19.10.2019 20:00:00 0,0 -2,7 9 5 31 17 NNE 1012,3 50 0,0
19.10.2019 19:00:00 -0,1 -1,2 4 2 21 12 N 1011,4 4,6 0,0
19.10.2019 18:00:00 0,3 -1,8 10 6 24 13 NNE 1010,1 16 -
19.10.2019 17:00:00 0,9 -1,3 13 7 32 17 NNE 1008,7 50 0,0
19.10.2019 16:00:00 1,3 -0,9 14 7 37 20 NE 1007,8 50 0,0
19.10.2019 15:00:00 1,5 -0,1 11 6 26 14 NNE 1007,0 41 0,0
19.10.2019 14:00:00 1,9 0,3 10 5 23 12 NNE 1006,3 50 0,0
19.10.2019 13:00:00 2,0 0,8 10 5 21 11 NNE 1005,8 50 0,0
19.10.2019 12:00:00 1,9 1,3 8 4 21 11 NE 1005,6 - 0,0
19.10.2019 11:00:00 2,0 1,6 8 5 19 10 NNE 1005,3 47 0,0
19.10.2019 10:00:00 2,2 1,9 4 2 15 8 NNE 1005,1 50 0,0
19.10.2019 09:00:00 1,8 1,7 6 4 11 6 NNE 1005,1 15 0,0
19.10.2019 08:00:00 1,6 1,5 3 2 10 5 NNE 1005,1 50 0,0
19.10.2019 07:00:00 1,7 1,6 0 0 4 2 N 1005,1 37 0,0
19.10.2019 06:00:00 1,7 1,6 0 0 6 3 N 1005,4 0,7 0,0
19.10.2019 05:00:00 1,4 1,3 0 0 2 1 N 1005,5 0,9 0,0
19.10.2019 04:00:00 1,4 1,3 0 0 1 1 N 1005,6 - 0,0
19.10.2019 03:00:00 1,3 1,2 0 0 3 2 N 1005,7 0,7 0,0
19.10.2019 02:00:00 1,5 1,4 0 0 4 2 N 1005,8 0,3 0,0
19.10.2019 01:00:00 0,8 0,7 0 0 4 2 N 1006,1 0,2 0,0
19.10.2019 00:00:00 1,3 1,2 0 0 3 2 N 1006,3 - 0,0
18.10.2019 23:00:00 1,1 1,0 0 0 3 2 N 1006,3 0,2 0,0
18.10.2019 22:00:00 2,1 2,0 0 0 1 1 N 1006,4 0,3 0,0
18.10.2019 21:00:00 2,2 2,1 0 0 2 1 N 1006,3 0,5 0,0
18.10.2019 20:00:00 2,5 2,4 0 0 5 3 N 1006,4 0,7 0,0
18.10.2019 19:00:00 2,7 2,6 0 0 4 2 N 1006,4 1,3 0,0
18.10.2019 18:00:00 2,8 2,7 2 1 5 3 ESE 1006,6 1,6 0,1
18.10.2019 17:00:00 2,9 2,8 0 0 4 2 N 1006,7 1,8 0,3
18.10.2019 16:00:00 3,1 3,0 3 2 6 3 SE 1006,7 2,1 0,1
18.10.2019 15:00:00 3,0 2,9 3 2 6 4 ESE 1006,8 6 0,2
18.10.2019 14:00:00 2,5 2,4 4 2 6 4 ESE 1007,4 3,9 0,4
18.10.2019 13:00:00 2,1 1,8 2 1 6 3 ESE 1007,8 2,5 0,0
18.10.2019 12:00:00 1,6 1,3 0 0 8 5 N 1008,1 2,4 0,0
18.10.2019 11:00:00 1,3 1,0 5 3 13 7 SE 1008,2 16 0,0
18.10.2019 10:00:00 1,0 0,7 3 2 10 6 SE 1008,5 50 0,0
18.10.2019 09:00:00 0,5 0,2 5 3 11 6 SE 1008,6 50 0,0
18.10.2019 08:00:00 0,3 0,0 4 2 10 5 ESE 1008,6 47 0,0
18.10.2019 07:00:00 0,2 0,1 3 1 7 4 ESE 1008,8 50 -
18.10.2019 06:00:00 0,1 0,0 4 2 6 3 SE 1009,2 8 0,0
18.10.2019 05:00:00 0,1 0,0 0 0 4 2 N 1009,7 3,0 0,1
18.10.2019 04:00:00 0,2 0,1 4 2 6 3 SE 1010,0 9 0,0
18.10.2019 03:00:00 0,1 0,0 0 0 7 4 N 1010,5 9 -
18.10.2019 02:00:00 0,1 0,0 0 0 5 3 N 1010,8 19 0,0
18.10.2019 01:00:00 0,1 0,0 2 1 5 3 E 1011,1 3,4 0,6
18.10.2019 00:00:00 0,2 0,1 2 1 5 3 E 1011,4 6 0,0
17.10.2019 23:00:00 0,1 0,0 3 2 6 3 ENE 1011,8 3,1 0,0
17.10.2019 22:00:00 0,1 0,0 2 1 5 3 E 1012,3 2,5 0,0
17.10.2019 21:00:00 0,1 0,0 3 2 6 3 ENE 1012,4 2,1 0,0
17.10.2019 20:00:00 0,0 -0,3 2 1 5 3 NE 1012,8 2,6 0,0
17.10.2019 19:00:00 0,1 -0,2 3 2 7 4 NE 1012,9 2,3 0,0
17.10.2019 18:00:00 0,2 -0,1 3 1 8 4 ENE 1013,0 3,3 0,0
17.10.2019 17:00:00 0,3 -0,3 4 2 11 6 ENE 1013,3 2,8 0,0
17.10.2019 16:00:00 0,6 -0,4 5 3 12 6 ENE 1013,5 6 0,0
17.10.2019 15:00:00 0,7 -0,6 4 2 16 9 ENE 1013,7 27 0,0
17.10.2019 14:00:00 0,4 -1,0 4 2 15 8 NE 1014,1 29 0,0
17.10.2019 13:00:00 0,6 -1,2 9 5 19 10 E 1014,3 41 0,0
17.10.2019 12:00:00 0,5 -1,3 7 4 18 10 E 1014,8 46 0,0
17.10.2019 11:00:00 -0,1 -1,2 7 4 19 10 ENE 1015,1 38 0,0
17.10.2019 10:00:00 -0,3 -1,4 10 6 21 12 ENE 1015,1 50 0,0
17.10.2019 09:00:00 -0,3 -1,4 10 6 23 13 ENE 1015,3 50 0,0
17.10.2019 08:00:00 -0,4 -1,4 13 7 23 13 ENE 1015,2 50 0,0
17.10.2019 07:00:00 -0,3 -1,4 12 7 23 13 ENE 1015,3 50 0,0
17.10.2019 06:00:00 -0,4 -1,4 8 5 16 9 ENE 1015,5 50 0,0
17.10.2019 05:00:00 -0,4 -1,2 7 4 18 10 ENE 1015,7 49 -
17.10.2019 04:00:00 -0,5 -1,2 6 3 15 8 ENE 1016,0 16 0,0
17.10.2019 03:00:00 -0,4 -1,2 8 4 16 9 ENE 1016,1 8 -
17.10.2019 02:00:00 -0,3 -1,4 7 4 21 11 E 1016,4 50 0,0
17.10.2019 01:00:00 -0,2 -1,0 10 6 21 11 ENE 1016,3 50 0,0
17.10.2019 00:00:00 -0,6 -1,3 8 4 15 8 ENE 1016,7 29 0,0
16.10.2019 23:00:00 -0,5 -1,2 4 2 10 5 ENE 1017,1 21 0,0
16.10.2019 22:00:00 -0,7 -1,3 5 3 10 5 NE 1017,2 18 0,0
16.10.2019 21:00:00 -0,8 -1,4 7 4 15 8 ENE 1017,2 50 0,0
16.10.2019 20:00:00 -0,8 -1,2 6 4 15 8 ENE 1017,0 - 0,0
16.10.2019 19:00:00 -0,8 -1,2 5 3 16 9 NE 1017,0 10 0,0
16.10.2019 18:00:00 -0,8 -1,2 8 4 14 7 ENE 1016,9 11 0,0
16.10.2019 17:00:00 -0,8 -1,4 8 4 14 8 ENE 1017,0 50 0,0
16.10.2019 16:00:00 -0,6 -1,4 5 3 13 7 NE 1017,3 50 0,0
16.10.2019 15:00:00 -0,7 -1,7 6 3 13 7 NE 1017,2 50 0,0
16.10.2019 14:00:00 -1,0 -2,3 7 4 15 8 ENE 1017,4 50 0,0
16.10.2019 13:00:00 -1,3 -2,6 7 4 15 8 NE 1017,4 - 0,0
16.10.2019 12:00:00 -2,0 -3,1 6 4 13 7 NE 1017,9 - 0,0
16.10.2019 11:00:00 -2,5 -3,6 5 3 12 6 NE 1018,1 0,1 0,0
16.10.2019 10:00:00 -2,9 -4,2 5 3 10 6 NE 1018,1 0,1 0,0
16.10.2019 09:00:00 -3,4 -4,5 3 2 9 5 NNE 1018,2 0,1 0,0
16.10.2019 08:00:00 -3,7 -4,8 3 2 8 5 NNE 1018,2 0,1 0,0
16.10.2019 07:00:00 -3,9 -5,0 4 2 9 5 NNE 1018,1 0,1 0,0
16.10.2019 06:00:00 -3,9 -4,9 4 2 10 5 N 1018,1 0,1 0,0
16.10.2019 05:00:00 -4,0 -4,5 4 2 8 4 NE 1018,4 0,1 0,0
16.10.2019 04:00:00 -3,9 -4,3 3 2 11 6 NNE 1018,6 - 0,0
16.10.2019 03:00:00 -4,2 -4,6 4 2 9 5 NNE 1019,0 - 0,0
16.10.2019 02:00:00 -4,2 -4,9 4 2 10 5 ENE 1019,2 - 0,0
16.10.2019 01:00:00 -4,1 -4,8 5 3 8 5 ENE 1019,4 0,1 -
16.10.2019 00:00:00 -3,6 -4,4 3 2 5 3 ENE 1019,3 - 0,0
15.10.2019 23:00:00 -3,4 -4,2 0 0 5 3 N 1019,5 - 0,0
15.10.2019 22:00:00 -3,2 -4,0 3 2 6 3 N 1019,4 - 0,0
15.10.2019 21:00:00 -2,9 -3,6 4 2 7 4 NE 1019,0 - 0,0
15.10.2019 20:00:00 -2,5 -3,3 2 1 4 2 NNW 1018,9 - -
15.10.2019 19:00:00 -2,3 -3,1 2 1 5 3 NW 1018,6 - 0,0
15.10.2019 18:00:00 -2,2 -2,9 0 0 8 4 N 1018,8 - 0,1
15.10.2019 17:00:00 -1,9 -2,7 2 1 6 3 NNW 1018,6 - 0,0
15.10.2019 16:00:00 -1,7 -2,8 3 1 9 5 SW 1018,8 - -
15.10.2019 15:00:00 -1,5 -2,5 0 0 9 5 N 1018,8 - -
15.10.2019 14:00:00 -1,4 -2,4 3 2 10 5 S 1018,9 - 0,1
15.10.2019 13:00:00 -1,5 -2,3 0 0 6 3 N 1018,8 - 0,0
15.10.2019 12:00:00 -1,9 -2,6 4 2 7 4 NW 1019,0 - 0,0
15.10.2019 11:00:00 -2,3 -3,0 4 2 7 4 WNW 1019,1 - 0,0
15.10.2019 10:00:00 -1,9 -2,5 0 0 6 3 N 1018,9 - 0,1
15.10.2019 09:00:00 -2,3 -2,9 2 1 4 2 SSW 1018,4 - 0,0
15.10.2019 08:00:00 -2,2 -2,5 0 0 4 2 N 1018,1 - 0,1
15.10.2019 07:00:00 -2,3 -2,6 0 0 2 1 N 1017,7 - 0,1
15.10.2019 06:00:00 -2,5 -2,8 0 0 3 1 N 1017,7 - 0,0
15.10.2019 05:00:00 -2,8 -3,1 0 0 2 1 N 1017,7 - 0,0
15.10.2019 04:00:00 -3,2 -3,6 0 0 3 2 N 1017,6 - 0,0
15.10.2019 03:00:00 -3,6 -4,0 0 0 4 2 N 1017,7 0,1 0,0
15.10.2019 02:00:00 -4,3 -4,7 3 1 4 2 ESE 1017,3 - 0,0
15.10.2019 01:00:00 -4,1 -4,4 0 0 5 3 N 1016,8 - 0,0
15.10.2019 00:00:00 -4,0 -4,3 0 0 3 2 N 1016,5 - 0,0
14.10.2019 23:00:00 -3,9 -4,2 2 1 3 2 E 1016,3 - 0,0
14.10.2019 22:00:00 -4,3 -4,6 0 0 3 2 N 1016,1 - 0,0
14.10.2019 21:00:00 -4,1 -4,5 0 0 3 2 N 1015,8 - 0,0
14.10.2019 20:00:00 -4,1 -4,5 0 0 1 1 N 1015,3 - 0,0
14.10.2019 19:00:00 -3,3 -3,7 0 0 1 1 N 1014,7 - 0,0
14.10.2019 18:00:00 -2,2 -2,6 0 0 2 1 N 1014,1 - 0,0
14.10.2019 17:00:00 -0,5 -1,1 0 0 3 2 N 1013,3 - 0,0
14.10.2019 16:00:00 1,5 -0,1 3 1 7 4 WSW 1012,6 0,1 0,0
14.10.2019 15:00:00 0,8 0,1 4 2 6 4 SW 1012,2 0,1 0,0
14.10.2019 14:00:00 0,0 -0,3 0 0 6 3 N 1012,0 0,1 0,0
14.10.2019 13:00:00 -0,8 -0,9 2 1 5 3 SSW 1011,8 - 0,0
14.10.2019 12:00:00 -2,3 -2,6 2 1 5 3 SSW 1011,7 6 0,0
14.10.2019 11:00:00 -3,0 -3,4 0 0 3 2 N 1011,4 6 0,0
14.10.2019 10:00:00 -4,2 -4,6 0 0 4 2 N 1011,2 1,4 -
14.10.2019 09:00:00 -4,9 -5,4 0 0 3 2 N 1011,0 1,4 0,0
14.10.2019 08:00:00 -5,2 -5,7 0 0 3 2 N 1010,5 2,2 0,0
14.10.2019 07:00:00 -5,2 -5,6 3 1 4 2 NE 1010,3 1,6 0,0
14.10.2019 06:00:00 -4,5 -4,8 0 0 3 2 N 1010,3 0,5 0,0
14.10.2019 05:00:00 -4,1 -4,4 0 0 4 2 N 1009,9 0,3 0,0
14.10.2019 04:00:00 -3,7 -4,0 0 0 3 2 N 1010,0 0,2 0,0

tt = temperature
td = dewpoint
ff = wind speed
fx = gusts
dd = wind direction
ppp = reduced air pressure
vv = visibility
rr = precipitation

Next stations